Powrót do katalogu

STARLINK-36188

AktywnyŁącznośćVLEO
NORAD 67122·PAYLOAD·🇺🇸 United States

Wystrzelony Dec 15, 2025 z Cape Canaveral Space Force Station

Loading…

Następne Przeloty (najbliższe 24 godziny)

TLE

ŚwieżeSource: CelesTrak SupGP

Epoka: Sep 14, 2026, 22:27 UTC

1 67122C 25299W   26257.93590278 -.00058852  00000+0 -21312-2 0  2577
2 67122  43.0021 180.4596 0001375 263.8325 193.4701 15.27614010    11

Śledź STARLINK-36188 w czasie rzeczywistym z AllMySat

Download on the App Store